星链-2168 (STARLINK-2168 )

导读

STARLINK-2168是美国SpaceX公司星链(Starlink)项目的一颗低轨通信卫星,于北京时间2021年3月4日发射入轨,属于星链V1.5批次卫星。作为全球最大低轨卫星星座的组成部分,它为全球偏远地区、基础设施匮乏区域提供高速低延迟宽带互联网服务,搭载激光星间链路,可实现卫星间直接通信,提升网络覆盖与可靠性,助力构建全球无缝连接的卫星通信网络。

Basic Information
目录编号:
47751
目录名称:
STARLINK-2168
国际标识:
2021-017AF
轨道中心:
EARTH
卫星名称:
星链-2168
卫星全名:
星链-2168 (STARLINK-2168 )
卫星状态:
已陨落 最后检测时间 2024-08-04
发射日期:
2021-03-04 UTC
国别 :
美国 (US)
星等 :
--
Orbit Information
数据来源 国际轨道数据
星历时间: 2024-08-04T07:23:35+0800
轨道信息已过期723天
半长轴: 6577.989km
偏心率: 0.0002904
轨道倾角: 53.035°
近地点辐角 252.887°
升交点赤经 243.348°
平近点角 207.414°
近地点: 197.943km
远地点: 201.765km
周期: 88.491分钟
每日圈数: 16.27283
Detailed Information
固有亮度:
5
最大亮度:
2.5
卫星平台:
Starlink V1.0
覆盖范围:
全球
运营商:
太空探索技术公司
运营商所在国:
美国
制造商(研发单位):
太空探索技术公司
制造商所在国:
美国
使用方式:
暂无
Satellite Introduction
星链(Starlink)计划是由太空探索技术公司(SpaceX)提出的一个巨型低轨卫星互联网星座项目,计划在2019年至2024年间在太空搭建由约1.2万颗卫星组成的“星链”网络,其中1584颗将部署在地球上空550千米处的近地轨道,并从2020年开始工作。该卫星仍在工作。